[Date Prev][Date Next][Thread Prev][Thread Next] - [Date Index][Thread Index][Author Index]
2 Line ISS Keps 6-15
- Subject: [sarex] 2 Line ISS Keps 6-15
- From: "Dave Larsen PhD" <doc@xxxxxxxxxxx>
- Date: Fri, 15 Jun 2001 05:32:28 -0700
ISS
1 25544U 98067A 01166.20033565 .00040378 00000-0 45527-3 0 896
2 25544 51.5712 98.7152 0017030 162.5169 357.4976 15.61935176146765
----
Via the sarex mailing list at AMSAT.ORG courtesy of AMSAT-NA.
To unsubscribe, send "unsubscribe sarex" to Majordomo@amsat.org
AMSAT Home